Previsão horária em Abapo

Hoje, 16 Janeiro, Sábado

Tempo Temperatura Precipitação Vento Pressão Humidade
00:00 +22°C° 0 mm 0 m/s 705 mmHg 93%
01:00 +22°C° 0 mm 0 m/s 705 mmHg 94%
02:00 +21°C° 0 mm 0 m/s 705 mmHg 95%
03:00 +21°C° 0 mm 0 m/s 704 mmHg 95%
04:00 +21°C° 0 mm 0 m/s 704 mmHg 95%
05:00 +20°C° 0 mm 0 m/s 704 mmHg 96%
06:00 +22°C° 0 mm 0 m/s 705 mmHg 88%
07:00 +24°C° 0 mm 0 m/s 705 mmHg 80%
08:00 +26°C° 0 mm 0 m/s 706 mmHg 71%
09:00 +31°C° 0 mm 1 m/s 706 mmHg 61%
10:00 +34°C° 0 mm 1 m/s 706 mmHg 51%
11:00 +38°C° 0 mm 2 m/s 706 mmHg 41%
12:00 +39°C° 0 mm 2 m/s 705 mmHg 38%
13:00 +39°C° 0 mm 3 m/s 704 mmHg 35%
14:00 +41°C° 0 mm 4 m/s 704 mmHg 32%
15:00 +40°C° 0 mm 4 m/s 703 mmHg 36%
16:00 +39°C° 0 mm 5 m/s 703 mmHg 39%
17:00 +36°C° 0 mm 5 m/s 702 mmHg 42%
18:00 +34°C° 0.1 mm 4 m/s 702 mmHg 54%
19:00 +30°C° 0.1 mm 3 m/s 703 mmHg 66%
20:00 +27°C° 0.1 mm 2 m/s 703 mmHg 77%
21:00 +26°C° 0.1 mm 2 m/s 704 mmHg 80%
22:00 +26°C° 0.1 mm 1 m/s 704 mmHg 83%
23:00 +25°C° 0.1 mm 1 m/s 705 mmHg 87%

Amanhã, 17 Janeiro, Domingo

Tempo Temperatura Precipitação Vento Pressão Humidade
00:00 +24°C° 0.4 mm 1 m/s 705 mmHg 90%
01:00 +24°C° 0.4 mm 1 m/s 704 mmHg 93%
02:00 +23°C° 0.4 mm 1 m/s 704 mmHg 96%
03:00 +23°C° 0.9 mm 1 m/s 704 mmHg 96%
04:00 +23°C° 0.9 mm 1 m/s 704 mmHg 97%
05:00 +23°C° 0.9 mm 1 m/s 705 mmHg 97%
06:00 +23°C° 2.7 mm 1 m/s 706 mmHg 97%
07:00 +24°C° 2.7 mm 1 m/s 706 mmHg 97%
08:00 +24°C° 2.7 mm 1 m/s 707 mmHg 97%
09:00 +25°C° 1.8 mm 1 m/s 708 mmHg 96%
10:00 +25°C° 1.8 mm 1 m/s 708 mmHg 94%
11:00 +25°C° 1.8 mm 1 m/s 709 mmHg 93%
12:00 +25°C° 0.6 mm 1 m/s 709 mmHg 89%
13:00 +25°C° 0.6 mm 1 m/s 709 mmHg 85%
14:00 +25°C° 0.6 mm 1 m/s 709 mmHg 82%
15:00 +25°C° 0.1 mm 2 m/s 709 mmHg 80%
16:00 +25°C° 0.1 mm 2 m/s 709 mmHg 78%
17:00 +24°C° 0.1 mm 2 m/s 709 mmHg 76%
18:00 +24°C° 0 mm 2 m/s 710 mmHg 73%
19:00 +24°C° 0 mm 3 m/s 710 mmHg 71%
20:00 +22°C° 0 mm 3 m/s 711 mmHg 68%
21:00 +22°C° 0 mm 3 m/s 711 mmHg 63%
22:00 +23°C° 0 mm 2 m/s 711 mmHg 58%
23:00 +23°C° 0 mm 2 m/s 712 mmHg 52%

Depois de amanhã, 18 Janeiro, Segunda-feira

Tempo Temperatura Precipitação Vento Pressão Humidade
00:00 +23°C° 0.1 mm 2 m/s 712 mmHg 53%
01:00 +21°C° 0.1 mm 2 m/s 711 mmHg 53%
02:00 +21°C° 0.1 mm 2 m/s 711 mmHg 54%
03:00 +19°C° 0.3 mm 2 m/s 711 mmHg 65%
04:00 +18°C° 0.3 mm 3 m/s 711 mmHg 75%
05:00 +16°C° 0.3 mm 3 m/s 711 mmHg 86%
06:00 +17°C° 0.1 mm 2 m/s 711 mmHg 84%
07:00 +17°C° 0.1 mm 2 m/s 711 mmHg 82%
08:00 +18°C° 0.1 mm 2 m/s 712 mmHg 81%
09:00 +19°C° 0 mm 2 m/s 712 mmHg 73%
10:00 +21°C° 0 mm 2 m/s 712 mmHg 65%
11:00 +24°C° 0 mm 2 m/s 712 mmHg 57%
12:00 +26°C° 0 mm 2 m/s 711 mmHg 49%
13:00 +28°C° 0 mm 1 m/s 711 mmHg 42%
14:00 +30°C° 0 mm 1 m/s 711 mmHg 35%
15:00 +30°C° 0 mm 1 m/s 710 mmHg 34%
16:00 +30°C° 0 mm 1 m/s 710 mmHg 33%
17:00 +31°C° 0 mm 1 m/s 709 mmHg 33%
18:00 +28°C° 0 mm 1 m/s 709 mmHg 39%
19:00 +26°C° 0 mm 1 m/s 710 mmHg 45%
20:00 +23°C° 0 mm 1 m/s 710 mmHg 51%
21:00 +23°C° 0 mm 1 m/s 711 mmHg 52%
22:00 +22°C° 0 mm 1 m/s 711 mmHg 53%
23:00 +20°C° 0 mm 2 m/s 712 mmHg 54%

19 Janeiro, Terça-feira

Tempo Temperatura Precipitação Vento Pressão Humidade
00:00 +20°C° 0 mm 2 m/s 711 mmHg 56%
01:00 +20°C° 0 mm 1 m/s 711 mmHg 58%
02:00 +19°C° 0 mm 1 m/s 710 mmHg 59%
03:00 +19°C° 0 mm 1 m/s 710 mmHg 60%
04:00 +19°C° 0 mm 1 m/s 710 mmHg 60%
05:00 +19°C° 0 mm 1 m/s 710 mmHg 61%
06:00 +21°C° 0 mm 1 m/s 710 mmHg 56%
07:00 +23°C° 0 mm 1 m/s 711 mmHg 51%
08:00 +25°C° 0 mm 1 m/s 711 mmHg 46%
09:00 +28°C° 0 mm 1 m/s 712 mmHg 39%
10:00 +31°C° 0 mm 1 m/s 712 mmHg 33%
11:00 +35°C° 0 mm 2 m/s 712 mmHg 26%
12:00 +36°C° 0 mm 2 m/s 711 mmHg 24%
13:00 +37°C° 0 mm 2 m/s 711 mmHg 22%
14:00 +38°C° 0 mm 2 m/s 710 mmHg 20%
15:00 +37°C° 0 mm 2 m/s 709 mmHg 20%
16:00 +37°C° 0 mm 2 m/s 709 mmHg 21%
17:00 +37°C° 0 mm 3 m/s 708 mmHg 22%
18:00 +32°C° 0 mm 2 m/s 709 mmHg 27%
19:00 +29°C° 0 mm 2 m/s 709 mmHg 32%
20:00 +26°C° 0 mm 1 m/s 709 mmHg 37%
21:00 +24°C° 0 mm 1 m/s 710 mmHg 40%
22:00 +23°C° 0 mm 1 m/s 711 mmHg 44%
23:00 +22°C° 0 mm 1 m/s 711 mmHg 47%

20 Janeiro, Quarta-feira

Tempo Temperatura Precipitação Vento Pressão Humidade
00:00 +22°C° 0 mm 1 m/s 711 mmHg 49%
01:00 +21°C° 0 mm 1 m/s 711 mmHg 51%
02:00 +21°C° 0 mm 1 m/s 711 mmHg 52%
03:00 +21°C° 0 mm 1 m/s 710 mmHg 53%
04:00 +19°C° 0 mm 2 m/s 710 mmHg 54%
05:00 +19°C° 0 mm 2 m/s 710 mmHg 55%
06:00 +21°C° 0 mm 2 m/s 711 mmHg 51%
07:00 +24°C° 0 mm 1 m/s 711 mmHg 48%
08:00 +26°C° 0 mm 1 m/s 712 mmHg 44%
09:00 +29°C° 0 mm 2 m/s 712 mmHg 37%
10:00 +32°C° 0 mm 2 m/s 712 mmHg 31%
11:00 +36°C° 0 mm 2 m/s 712 mmHg 24%
12:00 +37°C° 0 mm 2 m/s 711 mmHg 22%
13:00 +38°C° 0 mm 2 m/s 710 mmHg 21%
14:00 +39°C° 0 mm 2 m/s 710 mmHg 20%
15:00 +39°C° 0 mm 2 m/s 709 mmHg 20%
16:00 +38°C° 0 mm 2 m/s 709 mmHg 20%
17:00 +38°C° 0 mm 3 m/s 708 mmHg 20%
18:00 +35°C° 0 mm 2 m/s 709 mmHg 25%
19:00 +30°C° 0 mm 2 m/s 709 mmHg 30%
20:00 +27°C° 0 mm 1 m/s 709 mmHg 34%
21:00 +26°C° 0 mm 1 m/s 710 mmHg 37%
22:00 +25°C° 0 mm 1 m/s 711 mmHg 39%
23:00 +24°C° 0 mm 1 m/s 711 mmHg 42%

21 Janeiro, Quinta-feira

Tempo Temperatura Precipitação Vento Pressão Humidade
00:00 +24°C° 0 mm 1 m/s 711 mmHg 43%
01:00 +24°C° 0 mm 1 m/s 711 mmHg 45%
02:00 +23°C° 0 mm 1 m/s 711 mmHg 47%
03:00 +23°C° 0 mm 1 m/s 711 mmHg 49%
04:00 +22°C° 0 mm 1 m/s 710 mmHg 51%
05:00 +22°C° 0 mm 1 m/s 710 mmHg 53%
06:00 +24°C° 0 mm 1 m/s 711 mmHg 49%
07:00 +26°C° 0 mm 1 m/s 711 mmHg 45%
08:00 +28°C° 0 mm 1 m/s 712 mmHg 41%
09:00 +32°C° 0 mm 1 m/s 712 mmHg 35%
10:00 +35°C° 0 mm 1 m/s 712 mmHg 29%
11:00 +39°C° 0 mm 1 m/s 712 mmHg 23%
12:00 +40°C° 0 mm 1 m/s 711 mmHg 22%
13:00 +40°C° 0 mm 1 m/s 711 mmHg 21%
14:00 +41°C° 0 mm 1 m/s 710 mmHg 20%
15:00 +40°C° 0 mm 1 m/s 709 mmHg 22%
16:00 +39°C° 0 mm 1 m/s 709 mmHg 24%
17:00 +35°C° 0 mm 0 m/s 708 mmHg 26%
18:00 +34°C° 0 mm 1 m/s 709 mmHg 31%
19:00 +31°C° 0 mm 1 m/s 709 mmHg 35%
20:00 +28°C° 0 mm 1 m/s 710 mmHg 39%
21:00 +27°C° 0 mm 1 m/s 710 mmHg 41%
22:00 +26°C° 0 mm 1 m/s 711 mmHg 44%
23:00 +24°C° 0 mm 1 m/s 711 mmHg 46%
Mostrar mais